Other Surface Observations
Issued by NWS

Current Version | Previous Version | Text Only | Print | Product List | Glossary On
Versions: 1 2 3 4 5 6 7 8 9 10 11 12 13 14 15 16 17 18 19 20 21 22 23 24 25 26 27 28 29 30 31 32 33 34 35 36 37 38 39 40 41 42 43 44 45 46 47 48 49 50
000
SXUS52 KTAE 020018
OSOTAE
OSOTAE
North Florida/South Alabama/Southwest Georgia Weather Roundup
National Weather Service Tallahassee Florida
700 PM EST SUN FEB 01 2015

Note: "fair" indicates few or no clouds below 12,000 feet with no
significant weather and/or obstructions to visibility.

!FLZ017-115-028-034-025-020100
...North Florida...

CITY           SKY/WX    TMP DP  RH WIND       PRES   REMARKS
TALLAHASSEE    LGT RAIN  60  55  83 SE8       30.02F
APALACHICOLA   CLOUDY    66  60  81 S13       29.98F
PERRY          CLOUDY    66  52  60 S7        30.05S
CROSS CITY       N/A     65  51  60 S7        30.04F
JACKSONVILLE   MOCLDY    63  55  75 SE6       30.06R
$$

!FLZ112-006-005-002-011-020100
...Florida Panhandle...

CITY           SKY/WX    TMP DP  RH WIND       PRES   REMARKS
MARIANNA       RAIN      60  60 100 S9        29.97S FOG
BONIFAY        LGT RAIN  60  59  96 SE10      29.97S FOG
PANAMA CITY NW LGT RAIN  63  61  94 SE9G17    29.96F
TYNDALL AFB    LGT RAIN  64  63  94 S9G22     29.97F
TYND DRONE APT LGT RAIN  64  63  94 S10G30    29.95R
DE FUNIAK SPR  CLOUDY    61  61  99 S6        29.95S
EGLIN AFB      MOCLDY    63  62  96 S12       29.92F FOG
DESTIN         LGT RAIN  65  64  97 S7        29.93F
HURLBURT       MOCLDY    64  61  88 S13       29.91F
CRESTVIEW      CLOUDY    63  50  63 S5        29.94F
PENSACOLA      MOCLDY    63  62  97 S8        29.90F
$$

!ALZ063-066-020100
...South Alabama...

CITY           SKY/WX    TMP DP  RH WIND       PRES   REMARKS
DOTHAN         RAIN      59  57  94 SE12      29.97F FOG
OZARK CAIRNS   CLOUDY    59  57  94 SE8       29.94F
FT RUCKER HELI CLOUDY    60  59  96 S8        29.93F
RUCKER HELI 3  CLOUDY    59  59 100 S10       29.95S
RUCKER HELI 2  LGT RAIN  59  58  96 SE8       29.93F
FLORALA APT    CLOUDY    63  61  93 S9        29.94S
ANDALUSIA      CLOUDY    65  61  87 S8        29.92S
TROY           CLOUDY    61  59  93 S9        29.91F
EUFALA         LGT RAIN  58  56  93 S13G23    29.93S
MOBILE         CLOUDY    64  63  96 SW8       29.90S
$$

!GAZ120>161-020100
...Southwest and South Central Georgia...

CITY           SKY/WX    TMP DP  RH WIND       PRES   REMARKS
THOMASVILLE    LGT RAIN  64  52  63 S9        30.03F
BAINBRIDGE     RAIN      61  57  88 S12G17    29.99S
MOODY AFB      CLOUDY    63  48  58 S5        30.02F
VALDOSTA       MOCLDY    62  49  62 S5        30.03F
MOULTRIE       LGT RAIN  61  52  72 S7        30.02F
BLAKELY        LGT RAIN  61  59  94 S5        29.97S
ALBANY         CLOUDY    59  54  83 S9        30.00F
TIFTON         CLOUDY    59  52  77 S6        30.00F
FITZGERALD     RAIN      64  48  55 S13       30.02F
CORDELE        CLOUDY    62  53  72 S8        29.98F
AMERICUS       LGT RAIN  57  52  82 S10       29.99S
HOMERVILLE     MOCLDY    68  50  52 S3        30.03F
$$

!GMZ750-755-770-775-020100
...Coastal and Buoy Obs...

STATION/POSITION TIME  TEMP    WIND        PRES    VSBY  WAVE
                       AIR SEA DIR/SP/G                  HT/PER
                 (UTC) (F)     (DEG/KT/KT) (MB)    (MI)  (FT/S)
KEATON BEACH     0000   62     160/ 11/ 13 1017.3F
CEDAR KEY        0000   63     210/ 10/ 12 1017.8F
C TOWER          0000   66     160/ 22/ 23 1015.0F
APALACHICOLA BUO 0000   69 67  170/ 16/ 19 1016.3S         7/ 7
PANAMA CITY BUOY 2246   70 69  180/ 21/ 25 1014.6          8/ 8
MOBILE BUOY      NOT AVBL
ORANGE BCH AL BU 0000   65 62  180/  8/  8 1012.1F         6/ 8
$$



USA.gov is the U.S. government's official web portal to all federal, state and local government web resources and services.